Vernon, TX

5:31 AM CDT on August 19, 2017 (GMT -0500)
Vernon

Weather History for KF05 - September, 2013

Change the Weather History Date:

Saturday, September 7, 2013

  Actual Average (KLTS) Record (KLTS)
Temperature  
Mean Temperature 86 °F -  
Max Temperature 101 °F 88 °F 107 °F (2012)
Min Temperature 72 °F 65 °F 59 °F (2011)
Cooling Degree Days 22    
Growing Degree Days 36 (Base 50)    
Moisture  
Dew Point 57 °F    
Average Humidity 38    
Maximum Humidity 60    
Minimum Humidity 20    
Precipitation  
Precipitation 0.00 in - - ()
Sea Level Pressure  
Sea Level Pressure 29.99 in    
Wind  
Wind Speed 4 mph (South)    
Max Wind Speed 17 mph    
Max Gust Speed 18 mph    
Visibility 10 miles    
Events Thunderstorm    
Averages and records for this station are not official NWS values.
T = Trace of Precipitation, MM = Missing Value Source: NWS Daily Summary

Daily Weather History Graph

Daily Weather History Graph

Search for Another Location

Airport or City:

Trip Planner

Search our weather history database for the weather conditions in past years. The results will help you decide how hot, cold, wet, or windy it might be!

Date:

Astronomy

Sep. 07, 2013 Rise Set
Actual Time 7:14 AM CDT 7:54 PM CDT
Civil Twilight 6:49 AM CDT 8:19 PM CDT
Nautical Twilight 6:19 AM CDT 8:49 PM CDT
Astronomical Twilight 5:49 AM CDT 9:20 PM CDT
Moon 9:22 AM CDT (9/7) 9:03 PM CDT (9/7)
Length of Visible Light 13h 30m
Length of Day
12h 39m
Waxing Crescent, 5% of the Moon is Illuminated
Sep 7
Waxing Crescent
Sep 12
First Quarter
Sep 19
Full
Sep 26
Last Quarter
Oct 4
New

Hourly Weather History & Observations

Time (CDT) Temp. Heat Index Dew Point Humidity Pressure Visibility Wind Dir Wind Speed Gust Speed Precip Events Conditions
12:15 AM 83.5 °F 83.1 °F 58.5 °F 42% 30.00 in 10.0 mi SSE 5.8 mph - N/A   Clear
12:35 AM 82.8 °F 82.7 °F 58.6 °F 44% - 10.0 mi SSE 5.8 mph - N/A   Clear
12:55 AM 82.0 °F 82.1 °F 58.6 °F 45% 30.00 in 10.0 mi SSE 4.6 mph - N/A   Clear
1:15 AM 82.6 °F 82.6 °F 59.0 °F 45% 30.00 in 10.0 mi SE 4.6 mph - N/A   Clear
1:35 AM 81.5 °F 81.7 °F 59.0 °F 46% 30.00 in 10.0 mi ESE 3.5 mph - N/A   Clear
1:55 AM 81.0 °F 81.2 °F 58.5 °F 46% 30.00 in 10.0 mi Calm Calm - N/A   Clear
2:15 AM 79.9 °F - 58.6 °F 48% 30.00 in 10.0 mi Calm Calm - N/A   Clear
2:35 AM 78.1 °F - 59.0 °F 52% 30.00 in 10.0 mi Calm Calm - N/A   Clear
2:55 AM 78.6 °F - 59.0 °F 51% 30.00 in 10.0 mi Calm Calm - N/A   Clear
3:15 AM 77.9 °F - 58.3 °F 51% 29.99 in 10.0 mi Calm Calm - N/A   Clear
3:35 AM 78.4 °F - 58.8 °F 51% 30.00 in 10.0 mi Calm Calm - N/A   Clear
3:55 AM 77.7 °F - 58.8 °F 52% 30.00 in 10.0 mi Calm Calm - N/A   Clear
4:15 AM 78.1 °F - 58.8 °F 51% 30.00 in 10.0 mi Calm Calm - N/A   Clear
4:35 AM 76.8 °F - 58.8 °F 54% 30.00 in 10.0 mi Calm Calm - N/A   Clear
4:55 AM 76.1 °F - 59.0 °F 55% 30.00 in 10.0 mi Calm Calm - N/A   Clear
5:15 AM 75.4 °F - 58.3 °F 55% 30.00 in 10.0 mi Calm Calm - N/A   Clear
5:35 AM 75.0 °F - 58.1 °F 56% 30.00 in 10.0 mi Calm Calm - N/A   Clear
5:55 AM 75.6 °F - 58.6 °F 56% 30.00 in 10.0 mi Calm Calm - N/A   Clear
6:15 AM 75.7 °F - 59.2 °F 56% 30.00 in 10.0 mi Calm Calm - N/A   Clear
6:35 AM 75.2 °F - 59.2 °F 57% 30.01 in 10.0 mi Calm Calm - N/A   Clear
6:55 AM 72.7 °F - 58.3 °F 60% 30.01 in 10.0 mi Calm Calm - N/A   Clear
7:15 AM 73.0 °F - 57.7 °F 59% 30.01 in 10.0 mi Calm Calm - N/A   Clear
7:35 AM 73.9 °F - 58.8 °F 59% 30.02 in 10.0 mi Calm Calm - N/A   Clear
7:55 AM 74.5 °F - 59.5 °F 60% 30.03 in 10.0 mi Calm Calm - N/A   Clear
8:15 AM 75.4 °F - 59.5 °F 58% 30.03 in 10.0 mi Calm Calm - N/A   Clear
8:35 AM 77.4 °F - 59.5 °F 54% 30.03 in 10.0 mi Calm Calm - N/A   Clear
8:55 AM 79.9 °F - 59.2 °F 49% 30.03 in 10.0 mi Calm Calm - N/A   Clear
9:15 AM - - - N/A% 30.03 in - Calm Calm - N/A   Unknown
9:35 AM 84.2 °F 83.7 °F 57.9 °F 41% 30.04 in 10.0 mi Calm Calm - N/A   Clear
9:55 AM 86.4 °F 85.2 °F 57.0 °F 37% 30.04 in 10.0 mi Calm Calm - N/A   Clear
10:15 AM 88.7 °F 87.1 °F 56.3 °F 33% 30.04 in 10.0 mi Calm Calm - N/A   Clear
10:35 AM 90.3 °F 88.8 °F 56.7 °F 32% 30.04 in 10.0 mi SSW 4.6 mph - N/A   Clear
10:55 AM 91.8 °F 90.3 °F 57.0 °F 31% 30.04 in 10.0 mi WSW 3.5 mph - N/A   Clear
11:15 AM 93.4 °F 92.2 °F 57.4 °F 30% 30.05 in 10.0 mi SW 4.6 mph - N/A   Clear
11:35 AM 94.6 °F 93.5 °F 57.4 °F 29% 30.04 in 10.0 mi SW 6.9 mph - N/A   Clear
11:55 AM 95.7 °F 94.3 °F 56.8 °F 27% 30.04 in 10.0 mi WSW 5.8 mph - N/A   Clear
12:15 PM 97.2 °F 95.6 °F 55.6 °F 25% 30.03 in 10.0 mi SW 3.5 mph - N/A   Clear
12:35 PM 98.1 °F 96.1 °F 54.9 °F 23% 30.03 in 10.0 mi West 3.5 mph - N/A   Clear
12:55 PM 98.6 °F 96.8 °F 55.0 °F 23% 30.02 in 10.0 mi SSW 5.8 mph - N/A   Clear
1:15 PM 99.5 °F 97.6 °F 54.7 °F 22% 30.01 in 10.0 mi SW 4.6 mph - N/A   Clear
1:35 PM 100.6 °F 98.6 °F 54.3 °F 21% 30.00 in 10.0 mi South 6.9 mph - N/A   Scattered Clouds
1:55 PM 100.0 °F 97.9 °F 54.0 °F 21% 30.00 in 10.0 mi Calm Calm - N/A   Scattered Clouds
2:15 PM 100.2 °F 98.2 °F 54.0 °F 21% 29.99 in 10.0 mi Calm Calm - N/A   Mostly Cloudy
2:35 PM 100.8 °F 98.9 °F 54.5 °F 21% 29.98 in 10.0 mi SE 8.1 mph - N/A   Scattered Clouds
2:55 PM 101.8 °F 100.4 °F 54.7 °F 21% 29.97 in 10.0 mi SSW 8.1 mph - N/A   Scattered Clouds
3:15 PM 100.8 °F 98.9 °F 54.5 °F 21% 29.96 in 10.0 mi Calm Calm - N/A   Scattered Clouds
3:35 PM 100.6 °F 98.6 °F 54.5 °F 21% 29.95 in 10.0 mi SSE 6.9 mph - N/A   Scattered Clouds
3:55 PM 101.5 °F 99.4 °F 53.6 °F 20% 29.94 in 10.0 mi Calm Calm - N/A   Scattered Clouds
4:15 PM 100.9 °F 99.1 °F 53.8 °F 21% 29.93 in 10.0 mi ESE 8.1 mph - N/A   Mostly Cloudy
4:35 PM 99.9 °F 97.7 °F 53.8 °F 21% 29.93 in 10.0 mi SE 6.9 mph - N/A   Scattered Clouds
4:55 PM 100.4 °F 98.4 °F 53.8 °F 21% 29.93 in 10.0 mi SSW 5.8 mph - N/A   Scattered Clouds
5:15 PM 101.7 °F 99.7 °F 53.6 °F 20% 29.92 in 10.0 mi SSE 5.8 mph - N/A   Scattered Clouds
5:35 PM 101.3 °F 99.2 °F 53.8 °F 20% 29.92 in 10.0 mi SSE 5.8 mph - N/A   Scattered Clouds
5:55 PM 101.5 °F 99.4 °F 54.0 °F 20% 29.91 in 10.0 mi South 8.1 mph - N/A   Clear
6:15 PM 100.8 °F 98.9 °F 54.1 °F 21% 29.91 in 10.0 mi SE 10.4 mph - N/A   Scattered Clouds
6:35 PM 99.7 °F 97.8 °F 54.5 °F 22% 29.92 in 10.0 mi SSE 11.5 mph 18.4 mph N/A   Scattered Clouds
6:55 PM 98.6 °F 96.8 °F 54.3 °F 23% 29.92 in 10.0 mi SSE 11.5 mph - N/A   Clear
7:15 PM 97.9 °F 95.8 °F 54.7 °F 23% 29.92 in 10.0 mi SSE 9.2 mph 12.7 mph N/A   Clear
7:35 PM 96.3 °F 94.7 °F 56.7 °F 26% 29.93 in 10.0 mi SSE 17.3 mph - N/A   Clear
7:55 PM 93.6 °F 92.7 °F 58.5 °F 31% 29.93 in 10.0 mi SSE 16.1 mph - N/A   Clear
8:15 PM 92.3 °F 91.3 °F 58.6 °F 32% 29.94 in 10.0 mi SSE 12.7 mph - N/A Thunderstorm Clear
8:35 PM 91.4 °F 90.4 °F 58.5 °F 33% 29.94 in 10.0 mi SSE 10.4 mph - N/A   Clear
8:55 PM 90.7 °F 89.5 °F 58.3 °F 33% 29.95 in 10.0 mi SSE 6.9 mph - N/A Thunderstorm Clear
9:15 PM 89.4 °F 88.4 °F 58.5 °F 35% 29.96 in 10.0 mi SSE 6.9 mph - N/A Thunderstorm Clear
9:35 PM 88.0 °F 86.9 °F 58.1 °F 36% 29.96 in 10.0 mi SSE 6.9 mph - N/A   Clear
9:55 PM 86.5 °F 85.6 °F 58.1 °F 38% 29.97 in 10.0 mi South 6.9 mph - N/A   Clear
10:15 PM 85.3 °F 84.6 °F 58.1 °F 40% 29.97 in 10.0 mi South 5.8 mph - N/A   Clear
10:35 PM 84.4 °F 83.8 °F 58.1 °F 41% 29.97 in 10.0 mi SSE 5.8 mph - N/A   Clear
10:55 PM 82.9 °F 82.7 °F 58.1 °F 43% 29.98 in 10.0 mi SSW 4.6 mph - N/A   Clear
11:15 PM 82.4 °F 82.3 °F 58.6 °F 44% 29.98 in 10.0 mi South 4.6 mph - N/A   Clear
11:35 PM 82.8 °F 82.5 °F 58.5 °F 43% 29.98 in 10.0 mi South 5.8 mph - N/A   Clear
11:55 PM 82.2 °F 82.3 °F 58.6 °F 45% 29.98 in 10.0 mi SSW 4.6 mph - N/A   Clear